Date String (YYYY-MM-DD hh:mm:ss) UTC,Instrument flags,Ambient pressure (hPa),Sample flow (lpm),Bypass flow (lpm),Sample temperature (°C),Ambient temperature (°C),ASC tube jacket temperature (°C),LED temperature (°C),Box temperature (°C),Sample RH (%),Span deviation,Mass concentration (μg/m³),Mass concentration (μg/m³),Mass concentration (μg/m³)
DateTimeUTC,F1_M11,P_M11,Q1_M11,Q2_M11,T1_M11,T2_M11,T3_M11,T4_M11,T5_M11,U1_M11,ZSPAN_M11,X0_M11,X2_M11,X1_M11
2021-09-25 20:00:00,,0827.5,5.01,0.00,29.3,28.3,00.0,38.2,31.1,12.1,0003.4,0015.73,0006.28,0005.40
2021-09-25 20:01:00,,0827.4,5.00,0.00,29.2,27.0,00.0,38.2,30.8,12.5,0003.7,0016.87,0006.36,0005.42
2021-09-25 20:02:00,,0827.4,5.01,0.00,29.1,25.6,00.0,38.1,30.4,12.9,0003.9,0018.11,0006.41,0005.44
2021-09-25 20:03:00,,0827.4,4.99,0.00,29.0,25.9,00.0,38.1,30.4,12.3,0003.9,0018.32,0006.41,0005.44
2021-09-25 20:04:00,,0827.4,5.01,0.00,29.0,26.3,00.0,38.1,30.5,12.2,0003.6,0017.71,0006.41,0005.45
2021-09-25 20:05:00,,0827.4,4.98,0.00,29.0,26.8,00.0,38.1,30.7,12.4,0003.5,0017.04,0006.41,0005.46
2021-09-25 20:06:00,,0827.5,5.00,0.00,29.0,27.2,00.0,38.1,30.8,12.7,0003.5,0016.86,0006.44,0005.48
2021-09-25 20:07:00,,0827.4,5.01,0.00,29.1,27.6,00.0,38.1,30.9,12.1,0003.6,0016.50,0006.42,0005.51
2021-09-25 20:08:00,,0827.4,5.00,0.00,29.1,27.9,00.0,38.1,30.9,12.3,0003.5,0016.49,0006.40,0005.51
2021-09-25 20:09:00,,0827.4,4.99,0.00,29.2,28.1,00.0,38.1,31.0,12.4,0003.6,0016.65,0006.41,0005.52
2021-09-25 20:10:00,,0827.4,4.99,0.00,29.2,28.3,00.0,38.1,31.1,12.3,0003.1,0016.81,0006.47,0005.53
2021-09-25 20:11:00,,0827.3,5.00,0.00,29.2,27.2,00.0,38.1,30.8,12.2,0002.9,0016.64,0006.50,0005.54
2021-09-25 20:12:00,,0827.3,5.01,0.00,29.0,25.6,00.0,38.1,30.3,12.6,0002.9,0015.75,0006.45,0005.54
2021-09-25 20:13:00,,0827.3,4.98,0.00,28.9,25.7,00.0,38.1,30.3,12.5,0003.0,0013.83,0006.39,0005.52
2021-09-25 20:14:00,,0827.3,5.01,0.00,28.9,26.1,00.0,38.1,30.5,12.4,0003.2,0012.97,0006.35,0005.51
2021-09-25 20:15:00,,0827.3,5.01,0.00,28.9,26.6,00.0,38.0,30.6,12.3,0003.3,0013.01,0006.32,0005.51
2021-09-25 20:16:00,,0827.2,4.99,0.00,28.9,27.0,00.0,38.0,30.7,12.2,0003.6,0013.79,0006.29,0005.51
2021-09-25 20:17:00,,0827.2,5.01,0.00,29.0,27.4,00.0,38.0,30.8,12.2,0003.3,0013.92,0006.27,0005.50
2021-09-25 20:18:00,,0827.2,5.00,0.00,29.0,27.7,00.0,38.0,30.9,12.4,0003.3,0013.73,0006.23,0005.50
2021-09-25 20:19:00,,0827.2,5.00,0.00,29.1,28.0,00.0,38.1,31.0,12.5,0003.6,0013.97,0006.23,0005.49
2021-09-25 20:20:00,,0827.2,5.00,0.00,29.2,28.2,00.0,38.1,31.1,12.8,0003.8,0014.08,0006.22,0005.48
2021-09-25 20:21:00,,0827.2,4.99,0.00,29.2,28.4,00.0,38.1,31.1,12.6,0004.1,0013.28,0006.22,0005.46
2021-09-25 20:22:00,,0827.1,5.02,0.00,29.2,27.7,00.0,38.1,31.0,12.7,0004.3,0012.80,0006.21,0005.45
2021-09-25 20:23:00,,0827.2,4.99,0.00,29.1,25.9,00.0,38.1,30.4,13.2,0004.1,0013.11,0006.27,0005.46
2021-09-25 20:24:00,,0827.1,5.01,0.00,29.0,25.7,00.0,38.1,30.4,13.0,0003.6,0013.61,0006.32,0005.46
2021-09-25 20:25:00,,0827.2,5.00,0.00,28.9,26.2,00.0,38.1,30.5,12.7,0003.5,0015.56,0006.39,0005.47
2021-09-25 20:26:00,,0827.0,4.99,0.00,28.9,26.6,00.0,38.0,30.6,12.4,0003.6,0016.10,0006.39,0005.46
2021-09-25 20:27:00,,0827.4,5.01,0.00,29.0,27.0,00.0,38.0,30.7,12.4,0003.6,0015.85,0006.39,0005.46
2021-09-25 20:28:00,,0827.2,5.01,0.00,29.0,27.4,00.0,38.0,30.8,12.7,0003.6,0016.19,0006.33,0005.44
2021-09-25 20:29:00,,0827.0,4.98,0.00,29.1,27.7,00.0,38.0,30.9,12.6,0003.2,0016.56,0006.36,0005.42
2021-09-25 20:30:00,,0827.0,5.01,0.00,29.1,28.0,00.0,38.1,31.0,12.6,0003.0,0016.58,0006.42,0005.44
2021-09-25 20:31:00,,0827.0,5.00,0.00,29.2,28.3,00.0,38.1,31.1,12.6,0002.4,0015.88,0006.49,0005.45
2021-09-25 20:32:00,,0827.2,5.00,0.00,29.2,27.7,00.0,38.1,30.9,12.4,0002.1,0015.83,0006.52,0005.48
2021-09-25 20:33:00,,0826.9,5.00,0.00,29.1,26.0,00.0,38.1,30.4,12.9,0002.0,0016.23,0006.52,0005.51
2021-09-25 20:34:00,,0826.9,4.99,0.00,28.9,25.6,00.0,38.1,30.3,13.1,0002.1,0017.24,0006.52,0005.52
2021-09-25 20:35:00,,0826.9,5.00,0.00,28.9,26.1,00.0,38.1,30.5,13.1,0002.5,0017.29,0006.52,0005.52
2021-09-25 20:36:00,,0826.9,5.01,0.00,28.9,26.5,00.0,38.0,30.6,12.9,0003.4,0016.47,0006.53,0005.56
2021-09-25 20:37:00,,0826.8,4.99,0.00,28.9,27.0,00.0,38.0,30.7,12.3,0003.4,0015.15,0006.54,0005.57
2021-09-25 20:38:00,,0827.2,5.01,0.00,29.0,27.4,00.0,38.0,30.8,12.3,0002.8,0015.50,0006.57,0005.58
2021-09-25 20:39:00,,0826.9,4.99,0.00,29.0,27.7,00.0,38.0,30.9,12.5,0002.6,0014.72,0006.60,0005.58
2021-09-25 20:40:00,,0826.8,5.01,0.00,29.1,28.0,00.0,38.0,31.0,12.8,0002.8,0014.49,0006.63,0005.60
2021-09-25 20:41:00,,0826.8,5.00,0.00,29.2,28.3,00.0,38.1,31.1,12.9,0002.4,0014.21,0006.61,0005.61
2021-09-25 20:42:00,,0826.8,5.00,0.00,29.2,28.0,00.0,38.1,31.0,12.9,0002.6,0014.61,0006.59,0005.62
2021-09-25 20:43:00,,0826.7,5.00,0.00,29.1,26.2,00.0,38.1,30.6,13.1,0002.7,0014.61,0006.55,0005.61
2021-09-25 20:44:00,,0826.7,5.01,0.00,29.0,25.6,00.0,38.1,30.3,13.1,0002.8,0014.00,0006.52,0005.61
2021-09-25 20:45:00,,0826.7,5.00,0.00,28.9,26.0,00.0,38.1,30.5,13.2,0002.5,0013.14,0006.52,0005.62
2021-09-25 20:46:00,,0826.7,4.99,0.00,28.9,26.4,00.0,38.0,30.6,13.3,0001.9,0013.20,0006.53,0005.64
2021-09-25 20:47:00,,0826.7,5.00,0.00,28.9,26.9,00.0,38.0,30.7,13.2,0001.3,0013.38,0006.56,0005.63
2021-09-25 20:48:00,,0826.9,5.00,0.00,29.0,27.2,00.0,38.0,30.8,13.0,0001.0,0013.93,0006.56,0005.64
2021-09-25 20:49:00,,0826.8,5.01,0.00,29.0,27.6,00.0,38.0,30.9,12.5,0000.8,0013.47,0006.53,0005.64
2021-09-25 20:50:00,,0826.7,4.99,0.00,29.1,28.0,00.0,38.0,31.0,12.7,0000.8,0014.44,0006.56,0005.66
2021-09-25 20:51:00,,0826.7,5.00,0.00,29.2,28.2,00.0,38.1,31.1,12.5,0000.7,0014.61,0006.54,0005.65
2021-09-25 20:52:00,,0826.7,5.00,0.00,29.2,28.4,00.0,38.1,31.1,12.7,0000.9,0014.86,0006.55,0005.65
2021-09-25 20:53:00,,0826.6,4.98,0.00,29.2,27.5,00.0,38.1,30.9,12.3,0000.9,0014.32,0006.57,0005.67
2021-09-25 20:54:00,,0826.7,5.01,0.00,29.1,25.8,00.0,38.1,30.4,12.6,0000.7,0014.41,0006.61,0005.69
2021-09-25 20:55:00,,0826.7,4.99,0.00,29.0,25.8,00.0,38.1,30.4,12.8,0000.4,0015.30,0006.70,0005.69
2021-09-25 20:56:00,,0826.7,5.00,0.00,29.0,26.2,00.0,38.0,30.6,12.6,0000.7,0015.11,0006.69,0005.68
2021-09-25 20:57:00,,0826.6,5.01,0.00,29.0,26.6,00.0,38.0,30.7,12.3,0001.8,0014.50,0006.67,0005.66
2021-09-25 20:58:00,,0826.6,5.00,0.00,29.0,27.1,00.0,38.0,30.8,12.4,0002.1,0014.17,0006.64,0005.66
2021-09-25 20:59:00,,0826.5,5.00,0.00,29.0,27.4,00.0,38.0,30.9,12.2,0002.3,0013.63,0006.66,0005.65
